owner,sensor,date,latitude,longitude,vertical_datum,wind_speed,wind_to_direction,wind_speed_of_gust,qcFlag 
ADCP,ioos:station:wmo:42376:1,2012-06-01T00:00:00Z,29.1080,-87.9440,1.0,7.1,229.0,99.0,'11111222,11111222,11144222' 
ADCP,ioos:station:wmo:42376:1,2012-06-01T00:20:00Z,29.1080,-87.9440,1.0,7.1,229.0,99.0,'11111222,11111222,11144222' 
ADCP,ioos:station:wmo:42376:1,2012-06-01T00:40:00Z,29.1080,-87.9440,1.0,5.2,285.0,99.0,'11111222,11111222,11144222' 
ADCP,ioos:station:wmo:42376:1,2012-06-01T01:00:00Z,29.1080,-87.9440,1.0,5.8,280.0,99.0,'11111222,11111222,11144222' 
ADCP,ioos:station:wmo:42376:1,2012-06-01T01:20:00Z,29.1080,-87.9440,1.0,5.8,280.0,99.0,'11111222,11111222,11144222' 
ADCP,ioos:station:wmo:42376:1,2012-06-01T01:40:00Z,29.1080,-87.9440,1.0,3.9,256.0,99.0,'11111222,11111222,11144222' 
ADCP,ioos:station:wmo:42376:1,2012-06-01T02:00:00Z,29.1080,-87.9440,1.0,2.9,137.0,99.0,'11111222,11111222,11144222' 
ADCP,ioos:station:wmo:42376:1,2012-06-01T02:20:00Z,29.1080,-87.9440,1.0,2.9,137.0,99.0,'11111222,11111222,11144222' 
ADCP,ioos:station:wmo:42376:1,2012-06-01T02:40:00Z,29.1080,-87.9440,1.0,1.5,130.0,99.0,'11111222,11111222,11144222' 
ADCP,ioos:station:wmo:42376:1,2012-06-01T03:00:00Z,29.1080,-87.9440,1.0,2.2,147.0,99.0,'11111222,11111222,11144222' 
ADCP,ioos:station:wmo:42376:1,2012-06-01T03:20:00Z,29.1080,-87.9440,1.0,2.2,147.0,99.0,'11111222,11111222,11144222' 
ADCP,ioos:station:wmo:42376:1,2012-06-01T03:40:00Z,29.1080,-87.9440,1.0,1.6,144.0,99.0,'11111222,11111222,11144222' 
ADCP,ioos:station:wmo:42376:1,2012-06-01T04:00:00Z,29.1080,-87.9440,1.0,1.6,201.0,99.0,'11111222,11111222,11144222' 
ADCP,ioos:station:wmo:42376:1,2012-06-01T04:20:00Z,29.1080,-87.9440,1.0,1.6,201.0,99.0,'11111222,11111222,11144222' 
ADCP,ioos:station:wmo:42376:1,2012-06-01T04:40:00Z,29.1080,-87.9440,1.0,3.7,196.0,99.0,'11111222,11111222,11144222' 
ADCP,ioos:station:wmo:42376:1,2012-06-01T05:00:00Z,29.1080,-87.9440,1.0,4.3,174.0,99.0,'11111222,11111222,11144222' 
ADCP,ioos:station:wmo:42376:1,2012-06-01T05:20:00Z,29.1080,-87.9440,1.0,4.3,174.0,99.0,'11111222,11111222,11144222' 
ADCP,ioos:station:wmo:42376:1,2012-06-01T05:40:00Z,29.1080,-87.9440,1.0,4.7,168.0,99.0,'11111222,11111222,11144222' 
ADCP,ioos:station:wmo:42376:1,2012-06-01T06:00:00Z,29.1080,-87.9440,1.0,4.3,175.0,99.0,'11111222,11111222,11144222' 
ADCP,ioos:station:wmo:42376:1,2012-06-01T06:20:00Z,29.1080,-87.9440,1.0,4.3,175.0,99.0,'11111222,11111222,11144222' 
ADCP,ioos:station:wmo:42376:1,2012-06-01T06:40:00Z,29.1080,-87.9440,1.0,4.4,182.0,99.0,'11111222,11111222,11144222' 
ADCP,ioos:station:wmo:42376:1,2012-06-01T07:00:00Z,29.1080,-87.9440,1.0,4.5,188.0,99.0,'11111222,11111222,11144222' 
ADCP,ioos:station:wmo:42376:1,2012-06-01T07:20:00Z,29.1080,-87.9440,1.0,4.5,188.0,99.0,'11111222,11111222,11144222' 
ADCP,ioos:station:wmo:42376:1,2012-06-01T07:40:00Z,29.1080,-87.9440,1.0,6.0,208.0,99.0,'11111222,11111222,11144222' 
ADCP,ioos:station:wmo:42376:1,2012-06-01T08:00:00Z,29.1080,-87.9440,1.0,6.3,201.0,99.0,'11111222,11111222,11144222' 
ADCP,ioos:station:wmo:42376:1,2012-06-01T08:20:00Z,29.1080,-87.9440,1.0,6.3,201.0,99.0,'11111222,11111222,11144222' 
ADCP,ioos:station:wmo:42376:1,2012-06-01T08:40:00Z,29.1080,-87.9440,1.0,7.9,204.0,99.0,'11111222,11111222,11144222' 
ADCP,ioos:station:wmo:42376:1,2012-06-01T09:00:00Z,29.1080,-87.9440,1.0,9.1,210.0,99.0,'11111222,11111222,11144222' 
ADCP,ioos:station:wmo:42376:1,2012-06-01T09:20:00Z,29.1080,-87.9440,1.0,9.1,210.0,99.0,'11111222,11111222,11144222' 
ADCP,ioos:station:wmo:42376:1,2012-06-01T09:40:00Z,29.1080,-87.9440,1.0,9.5,221.0,99.0,'11111222,11111222,11144222' 
ADCP,ioos:station:wmo:42376:1,2012-06-01T10:00:00Z,29.1080,-87.9440,1.0,10.9,273.0,99.0,'11111222,11111222,11144222' 
ADCP,ioos:station:wmo:42376:1,2012-06-01T10:20:00Z,29.1080,-87.9440,1.0,10.9,273.0,99.0,'11111222,11111222,11144222' 
ADCP,ioos:station:wmo:42376:1,2012-06-01T10:40:00Z,29.1080,-87.9440,1.0,15.5,309.0,99.0,'11111222,11111222,11144222' 
ADCP,ioos:station:wmo:42376:1,2012-06-01T11:00:00Z,29.1080,-87.9440,1.0,15.3,308.0,99.0,'11111222,11111222,11144222' 
ADCP,ioos:station:wmo:42376:1,2012-06-01T11:20:00Z,29.1080,-87.9440,1.0,15.3,308.0,99.0,'11111222,11111222,11144222' 
ADCP,ioos:station:wmo:42376:1,2012-06-01T11:40:00Z,29.1080,-87.9440,1.0,15.3,308.0,99.0,'11111222,11111222,11144222' 
ADCP,ioos:station:wmo:42376:1,2012-06-01T12:00:00Z,29.1080,-87.9440,1.0,99.0,-9999.0,99.0,'11144222,99999999,11144222' 
ADCP,ioos:station:wmo:42376:1,2012-06-01T12:20:00Z,29.1080,-87.9440,1.0,99.0,-9999.0,99.0,'11144222,99999999,11144222' 
ADCP,ioos:station:wmo:42376:1,2012-06-01T12:40:00Z,29.1080,-87.9440,1.0,99.0,-9999.0,99.0,'11144222,99999999,11144222' 
ADCP,ioos:station:wmo:42376:1,2012-06-01T13:00:00Z,29.1080,-87.9440,1.0,99.0,-9999.0,99.0,'11144222,99999999,11144222' 
ADCP,ioos:station:wmo:42376:1,2012-06-01T13:20:00Z,29.1080,-87.9440,1.0,99.0,-9999.0,99.0,'11144222,99999999,11144222' 
ADCP,ioos:station:wmo:42376:1,2012-06-01T13:40:00Z,29.1080,-87.9440,1.0,99.0,-9999.0,99.0,'11144222,99999999,11144222' 
ADCP,ioos:station:wmo:42376:1,2012-06-01T14:00:00Z,29.1080,-87.9440,1.0,99.0,-9999.0,99.0,'11144222,99999999,11144222' 
ADCP,ioos:station:wmo:42376:1,2012-06-01T14:20:00Z,29.1080,-87.9440,1.0,99.0,-9999.0,99.0,'11144222,99999999,11144222' 
ADCP,ioos:station:wmo:42376:1,2012-06-01T14:40:00Z,29.1080,-87.9440,1.0,99.0,-9999.0,99.0,'11144222,99999999,11144222' 
ADCP,ioos:station:wmo:42376:1,2012-06-01T15:00:00Z,29.1080,-87.9440,1.0,99.0,-9999.0,99.0,'11144222,99999999,11144222' 
ADCP,ioos:station:wmo:42376:1,2012-06-01T15:20:00Z,29.1080,-87.9440,1.0,99.0,-9999.0,99.0,'11144222,99999999,11144222' 
ADCP,ioos:station:wmo:42376:1,2012-06-01T15:40:00Z,29.1080,-87.9440,1.0,99.0,-9999.0,99.0,'11144222,99999999,11144222' 
ADCP,ioos:station:wmo:42376:1,2012-06-01T16:00:00Z,29.1080,-87.9440,1.0,99.0,-9999.0,99.0,'11144222,99999999,11144222' 
ADCP,ioos:station:wmo:42376:1,2012-06-01T16:20:00Z,29.1080,-87.9440,1.0,99.0,-9999.0,99.0,'11144222,99999999,11144222' 
ADCP,ioos:station:wmo:42376:1,2012-06-01T16:40:00Z,29.1080,-87.9440,1.0,99.0,-9999.0,99.0,'11144222,99999999,11144222' 
ADCP,ioos:station:wmo:42376:1,2012-06-01T17:00:00Z,29.1080,-87.9440,1.0,99.0,-9999.0,99.0,'11144222,99999999,11144222' 
ADCP,ioos:station:wmo:42376:1,2012-06-01T17:20:00Z,29.1080,-87.9440,1.0,99.0,-9999.0,99.0,'11144222,99999999,11144222' 
ADCP,ioos:station:wmo:42376:1,2012-06-01T17:40:00Z,29.1080,-87.9440,1.0,99.0,-9999.0,99.0,'11144222,99999999,11144222' 
ADCP,ioos:station:wmo:42376:1,2012-06-01T18:00:00Z,29.1080,-87.9440,1.0,99.0,-9999.0,99.0,'11144222,99999999,11144222' 
ADCP,ioos:station:wmo:42376:1,2012-06-01T18:20:00Z,29.1080,-87.9440,1.0,99.0,-9999.0,99.0,'11144222,99999999,11144222' 
ADCP,ioos:station:wmo:42376:1,2012-06-01T18:40:00Z,29.1080,-87.9440,1.0,99.0,-9999.0,99.0,'11144222,99999999,11144222' 
ADCP,ioos:station:wmo:42376:1,2012-06-01T19:00:00Z,29.1080,-87.9440,1.0,99.0,-9999.0,99.0,'11144222,99999999,11144222' 
ADCP,ioos:station:wmo:42376:1,2012-06-01T19:20:00Z,29.1080,-87.9440,1.0,99.0,-9999.0,99.0,'11144222,99999999,11144222' 
ADCP,ioos:station:wmo:42376:1,2012-06-01T19:40:00Z,29.1080,-87.9440,1.0,99.0,-9999.0,99.0,'11144222,99999999,11144222' 
ADCP,ioos:station:wmo:42376:1,2012-06-01T20:00:00Z,29.1080,-87.9440,1.0,99.0,-9999.0,99.0,'11144222,99999999,11144222' 
ADCP,ioos:station:wmo:42376:1,2012-06-01T20:20:00Z,29.1080,-87.9440,1.0,99.0,-9999.0,99.0,'11144222,99999999,11144222' 
ADCP,ioos:station:wmo:42376:1,2012-06-01T20:40:00Z,29.1080,-87.9440,1.0,99.0,-9999.0,99.0,'11144222,99999999,11144222' 
ADCP,ioos:station:wmo:42376:1,2012-06-01T21:00:00Z,29.1080,-87.9440,1.0,99.0,-9999.0,99.0,'11144222,99999999,11144222' 
ADCP,ioos:station:wmo:42376:1,2012-06-01T21:20:00Z,29.1080,-87.9440,1.0,99.0,-9999.0,99.0,'11144222,99999999,11144222' 
ADCP,ioos:station:wmo:42376:1,2012-06-01T21:40:00Z,29.1080,-87.9440,1.0,99.0,-9999.0,99.0,'11144222,99999999,11144222' 
ADCP,ioos:station:wmo:42376:1,2012-06-01T22:00:00Z,29.1080,-87.9440,1.0,99.0,-9999.0,99.0,'11144222,99999999,11144222' 
ADCP,ioos:station:wmo:42376:1,2012-06-01T22:20:00Z,29.1080,-87.9440,1.0,99.0,-9999.0,99.0,'11144222,99999999,11144222' 
ADCP,ioos:station:wmo:42376:1,2012-06-01T22:40:00Z,29.1080,-87.9440,1.0,99.0,-9999.0,99.0,'11144222,99999999,11144222' 
ADCP,ioos:station:wmo:42376:1,2012-06-01T23:00:00Z,29.1080,-87.9440,1.0,99.0,-9999.0,99.0,'11144222,99999999,11144222' 
ADCP,ioos:station:wmo:42376:1,2012-06-01T23:20:00Z,29.1080,-87.9440,1.0,99.0,-9999.0,99.0,'11144222,99999999,11144222' 
ADCP,ioos:station:wmo:42376:1,2012-06-01T23:40:00Z,29.1080,-87.9440,1.0,99.0,-9999.0,99.0,'11144222,99999999,11144222' 
ADCP,ioos:station:wmo:42376:1,2012-06-02T00:00:00Z,29.1080,-87.9440,1.0,99.0,-9999.0,99.0,'11144222,99999999,11144222' 
ADCP,ioos:station:wmo:42376:1,2012-06-02T00:20:00Z,29.1080,-87.9440,1.0,99.0,-9999.0,99.0,'11144222,99999999,11144222' 
ADCP,ioos:station:wmo:42376:1,2012-06-02T00:40:00Z,29.1080,-87.9440,1.0,99.0,-9999.0,99.0,'11144222,99999999,11144222' 
ADCP,ioos:station:wmo:42376:1,2012-06-02T01:00:00Z,29.1080,-87.9440,1.0,99.0,-9999.0,99.0,'11144222,99999999,11144222' 
ADCP,ioos:station:wmo:42376:1,2012-06-02T01:20:00Z,29.1080,-87.9440,1.0,99.0,-9999.0,99.0,'11144222,99999999,11144222' 
ADCP,ioos:station:wmo:42376:1,2012-06-02T01:40:00Z,29.1080,-87.9440,1.0,99.0,-9999.0,99.0,'11144222,99999999,11144222' 
ADCP,ioos:station:wmo:42376:1,2012-06-02T02:00:00Z,29.1080,-87.9440,1.0,99.0,-9999.0,99.0,'11144222,99999999,11144222' 
ADCP,ioos:station:wmo:42376:1,2012-06-02T02:20:00Z,29.1080,-87.9440,1.0,99.0,-9999.0,99.0,'11144222,99999999,11144222' 
ADCP,ioos:station:wmo:42376:1,2012-06-02T02:40:00Z,29.1080,-87.9440,1.0,99.0,-9999.0,99.0,'11144222,99999999,11144222' 
ADCP,ioos:station:wmo:42376:1,2012-06-02T03:00:00Z,29.1080,-87.9440,1.0,99.0,-9999.0,99.0,'11144222,99999999,11144222' 
ADCP,ioos:station:wmo:42376:1,2012-06-02T03:20:00Z,29.1080,-87.9440,1.0,99.0,-9999.0,99.0,'11144222,99999999,11144222' 
ADCP,ioos:station:wmo:42376:1,2012-06-02T03:40:00Z,29.1080,-87.9440,1.0,99.0,-9999.0,99.0,'11144222,99999999,11144222' 
ADCP,ioos:station:wmo:42376:1,2012-06-02T04:00:00Z,29.1080,-87.9440,1.0,99.0,-9999.0,99.0,'11144222,99999999,11144222' 
ADCP,ioos:station:wmo:42376:1,2012-06-02T04:20:00Z,29.1080,-87.9440,1.0,99.0,-9999.0,99.0,'11144222,99999999,11144222' 
ADCP,ioos:station:wmo:42376:1,2012-06-02T04:40:00Z,29.1080,-87.9440,1.0,99.0,-9999.0,99.0,'11144222,99999999,11144222' 
ADCP,ioos:station:wmo:42376:1,2012-06-02T05:00:00Z,29.1080,-87.9440,1.0,99.0,-9999.0,99.0,'11144222,99999999,11144222' 
ADCP,ioos:station:wmo:42376:1,2012-06-02T05:20:00Z,29.1080,-87.9440,1.0,99.0,-9999.0,99.0,'11144222,99999999,11144222' 
ADCP,ioos:station:wmo:42376:1,2012-06-02T05:40:00Z,29.1080,-87.9440,1.0,99.0,-9999.0,99.0,'11144222,99999999,11144222' 
ADCP,ioos:station:wmo:42376:1,2012-06-02T06:00:00Z,29.1080,-87.9440,1.0,99.0,-9999.0,99.0,'11144222,99999999,11144222' 
ADCP,ioos:station:wmo:42376:1,2012-06-02T06:20:00Z,29.1080,-87.9440,1.0,99.0,-9999.0,99.0,'11144222,99999999,11144222' 
ADCP,ioos:station:wmo:42376:1,2012-06-02T06:40:00Z,29.1080,-87.9440,1.0,99.0,-9999.0,99.0,'11144222,99999999,11144222' 
ADCP,ioos:station:wmo:42376:1,2012-06-02T07:00:00Z,29.1080,-87.9440,1.0,99.0,-9999.0,99.0,'11144222,99999999,11144222' 
ADCP,ioos:station:wmo:42376:1,2012-06-02T07:20:00Z,29.1080,-87.9440,1.0,99.0,-9999.0,99.0,'11144222,99999999,11144222' 
ADCP,ioos:station:wmo:42376:1,2012-06-02T07:40:00Z,29.1080,-87.9440,1.0,99.0,-9999.0,99.0,'11144222,99999999,11144222' 
ADCP,ioos:station:wmo:42376:1,2012-06-02T08:00:00Z,29.1080,-87.9440,1.0,99.0,-9999.0,99.0,'11144222,99999999,11144222' 
ADCP,ioos:station:wmo:42376:1,2012-06-02T08:20:00Z,29.1080,-87.9440,1.0,99.0,-9999.0,99.0,'11144222,99999999,11144222' 
ADCP,ioos:station:wmo:42376:1,2012-06-02T08:40:00Z,29.1080,-87.9440,1.0,99.0,-9999.0,99.0,'11144222,99999999,11144222' 
ADCP,ioos:station:wmo:42376:1,2012-06-02T09:00:00Z,29.1080,-87.9440,1.0,99.0,-9999.0,99.0,'11144222,99999999,11144222' 
ADCP,ioos:station:wmo:42376:1,2012-06-02T09:20:00Z,29.1080,-87.9440,1.0,99.0,-9999.0,99.0,'11144222,99999999,11144222' 
ADCP,ioos:station:wmo:42376:1,2012-06-02T09:40:00Z,29.1080,-87.9440,1.0,99.0,-9999.0,99.0,'11144222,99999999,11144222' 
ADCP,ioos:station:wmo:42376:1,2012-06-02T10:00:00Z,29.1080,-87.9440,1.0,99.0,-9999.0,99.0,'11144222,99999999,11144222' 
ADCP,ioos:station:wmo:42376:1,2012-06-02T10:20:00Z,29.1080,-87.9440,1.0,99.0,-9999.0,99.0,'11144222,99999999,11144222' 
ADCP,ioos:station:wmo:42376:1,2012-06-02T10:40:00Z,29.1080,-87.9440,1.0,99.0,-9999.0,99.0,'11144222,99999999,11144222' 
ADCP,ioos:station:wmo:42376:1,2012-06-02T11:00:00Z,29.1080,-87.9440,1.0,99.0,-9999.0,99.0,'11144222,99999999,11144222' 
ADCP,ioos:station:wmo:42376:1,2012-06-02T11:20:00Z,29.1080,-87.9440,1.0,99.0,-9999.0,99.0,'11144222,99999999,11144222' 
ADCP,ioos:station:wmo:42376:1,2012-06-02T11:40:00Z,29.1080,-87.9440,1.0,99.0,-9999.0,99.0,'11144222,99999999,11144222' 
ADCP,ioos:station:wmo:42376:1,2012-06-02T12:00:00Z,29.1080,-87.9440,1.0,99.0,-9999.0,99.0,'11144222,99999999,11144222' 
ADCP,ioos:station:wmo:42376:1,2012-06-02T12:20:00Z,29.1080,-87.9440,1.0,99.0,-9999.0,99.0,'11144222,99999999,11144222' 
ADCP,ioos:station:wmo:42376:1,2012-06-02T12:40:00Z,29.1080,-87.9440,1.0,99.0,-9999.0,99.0,'11144222,99999999,11144222' 
ADCP,ioos:station:wmo:42376:1,2012-06-02T13:00:00Z,29.1080,-87.9440,1.0,99.0,-9999.0,99.0,'11144222,99999999,11144222' 
ADCP,ioos:station:wmo:42376:1,2012-06-02T13:20:00Z,29.1080,-87.9440,1.0,99.0,-9999.0,99.0,'11144222,99999999,11144222' 
ADCP,ioos:station:wmo:42376:1,2012-06-02T13:40:00Z,29.1080,-87.9440,1.0,99.0,-9999.0,99.0,'11144222,99999999,11144222' 
ADCP,ioos:station:wmo:42376:1,2012-06-02T14:00:00Z,29.1080,-87.9440,1.0,99.0,-9999.0,99.0,'11144222,99999999,11144222' 
ADCP,ioos:station:wmo:42376:1,2012-06-02T14:20:00Z,29.1080,-87.9440,1.0,99.0,-9999.0,99.0,'11144222,99999999,11144222' 
ADCP,ioos:station:wmo:42376:1,2012-06-02T14:40:00Z,29.1080,-87.9440,1.0,99.0,-9999.0,99.0,'11144222,99999999,11144222' 
ADCP,ioos:station:wmo:42376:1,2012-06-02T15:00:00Z,29.1080,-87.9440,1.0,99.0,-9999.0,99.0,'11144222,99999999,11144222' 
ADCP,ioos:station:wmo:42376:1,2012-06-02T15:20:00Z,29.1080,-87.9440,1.0,99.0,-9999.0,99.0,'11144222,99999999,11144222' 
ADCP,ioos:station:wmo:42376:1,2012-06-02T15:40:00Z,29.1080,-87.9440,1.0,99.0,-9999.0,99.0,'11144222,99999999,11144222' 
ADCP,ioos:station:wmo:42376:1,2012-06-02T16:00:00Z,29.1080,-87.9440,1.0,99.0,-9999.0,99.0,'11144222,99999999,11144222' 
ADCP,ioos:station:wmo:42376:1,2012-06-02T16:20:00Z,29.1080,-87.9440,1.0,99.0,-9999.0,99.0,'11144222,99999999,11144222' 
ADCP,ioos:station:wmo:42376:1,2012-06-02T16:40:00Z,29.1080,-87.9440,1.0,99.0,-9999.0,99.0,'11144222,99999999,11144222' 
ADCP,ioos:station:wmo:42376:1,2012-06-02T17:00:00Z,29.1080,-87.9440,1.0,99.0,-9999.0,99.0,'11144222,99999999,11144222' 
ADCP,ioos:station:wmo:42376:1,2012-06-02T17:20:00Z,29.1080,-87.9440,1.0,99.0,-9999.0,99.0,'11144222,99999999,11144222' 
ADCP,ioos:station:wmo:42376:1,2012-06-02T17:40:00Z,29.1080,-87.9440,1.0,99.0,-9999.0,99.0,'11144222,99999999,11144222' 
ADCP,ioos:station:wmo:42376:1,2012-06-02T18:00:00Z,29.1080,-87.9440,1.0,99.0,-9999.0,99.0,'11144222,99999999,11144222' 
ADCP,ioos:station:wmo:42376:1,2012-06-02T18:20:00Z,29.1080,-87.9440,1.0,99.0,-9999.0,99.0,'11144222,99999999,11144222' 
ADCP,ioos:station:wmo:42376:1,2012-06-02T18:40:00Z,29.1080,-87.9440,1.0,99.0,-9999.0,99.0,'11144222,99999999,11144222' 
ADCP,ioos:station:wmo:42376:1,2012-06-02T19:00:00Z,29.1080,-87.9440,1.0,99.0,-9999.0,99.0,'11144222,99999999,11144222' 
ADCP,ioos:station:wmo:42376:1,2012-06-02T19:20:00Z,29.1080,-87.9440,1.0,99.0,-9999.0,99.0,'11144222,99999999,11144222' 
ADCP,ioos:station:wmo:42376:1,2012-06-02T19:40:00Z,29.1080,-87.9440,1.0,99.0,-9999.0,99.0,'11144222,99999999,11144222' 
ADCP,ioos:station:wmo:42376:1,2012-06-02T20:00:00Z,29.1080,-87.9440,1.0,99.0,-9999.0,99.0,'11144222,99999999,11144222' 
ADCP,ioos:station:wmo:42376:1,2012-06-02T20:20:00Z,29.1080,-87.9440,1.0,99.0,-9999.0,99.0,'11144222,99999999,11144222' 
ADCP,ioos:station:wmo:42376:1,2012-06-02T20:40:00Z,29.1080,-87.9440,1.0,99.0,-9999.0,99.0,'11144222,99999999,11144222' 
ADCP,ioos:station:wmo:42376:1,2012-06-02T21:00:00Z,29.1080,-87.9440,1.0,99.0,-9999.0,99.0,'11144222,99999999,11144222' 
ADCP,ioos:station:wmo:42376:1,2012-06-02T21:20:00Z,29.1080,-87.9440,1.0,99.0,-9999.0,99.0,'11144222,99999999,11144222' 
ADCP,ioos:station:wmo:42376:1,2012-06-02T21:40:00Z,29.1080,-87.9440,1.0,99.0,-9999.0,99.0,'11144222,99999999,11144222' 
ADCP,ioos:station:wmo:42376:1,2012-06-02T22:00:00Z,29.1080,-87.9440,1.0,99.0,-9999.0,99.0,'11144222,99999999,11144222' 
ADCP,ioos:station:wmo:42376:1,2012-06-02T22:20:00Z,29.1080,-87.9440,1.0,99.0,-9999.0,99.0,'11144222,99999999,11144222' 
ADCP,ioos:station:wmo:42376:1,2012-06-02T22:40:00Z,29.1080,-87.9440,1.0,99.0,-9999.0,99.0,'11144222,99999999,11144222' 
ADCP,ioos:station:wmo:42376:1,2012-06-02T23:00:00Z,29.1080,-87.9440,1.0,99.0,-9999.0,99.0,'11144222,99999999,11144222' 
ADCP,ioos:station:wmo:42376:1,2012-06-02T23:20:00Z,29.1080,-87.9440,1.0,99.0,-9999.0,99.0,'11144222,99999999,11144222' 
ADCP,ioos:station:wmo:42376:1,2012-06-02T23:40:00Z,29.1080,-87.9440,1.0,99.0,-9999.0,99.0,'11144222,99999999,11144222' 
ADCP,ioos:station:wmo:42376:1,2012-06-03T00:00:00Z,29.1080,-87.9440,1.0,99.0,-9999.0,99.0,'11144222,99999999,11144222' 
ADCP,ioos:station:wmo:42376:1,2012-06-03T00:20:00Z,29.1080,-87.9440,1.0,99.0,-9999.0,99.0,'11144222,99999999,11144222' 
ADCP,ioos:station:wmo:42376:1,2012-06-03T00:40:00Z,29.1080,-87.9440,1.0,99.0,-9999.0,99.0,'11144222,99999999,11144222' 
ADCP,ioos:station:wmo:42376:1,2012-06-03T01:00:00Z,29.1080,-87.9440,1.0,99.0,-9999.0,99.0,'11144222,99999999,11144222' 
ADCP,ioos:station:wmo:42376:1,2012-06-03T01:20:00Z,29.1080,-87.9440,1.0,99.0,-9999.0,99.0,'11144222,99999999,11144222' 
ADCP,ioos:station:wmo:42376:1,2012-06-03T01:40:00Z,29.1080,-87.9440,1.0,99.0,-9999.0,99.0,'11144222,99999999,11144222' 
ADCP,ioos:station:wmo:42376:1,2012-06-03T02:00:00Z,29.1080,-87.9440,1.0,99.0,-9999.0,99.0,'11144222,99999999,11144222' 
ADCP,ioos:station:wmo:42376:1,2012-06-03T02:20:00Z,29.1080,-87.9440,1.0,99.0,-9999.0,99.0,'11144222,99999999,11144222' 
ADCP,ioos:station:wmo:42376:1,2012-06-03T02:40:00Z,29.1080,-87.9440,1.0,99.0,-9999.0,99.0,'11144222,99999999,11144222' 
ADCP,ioos:station:wmo:42376:1,2012-06-03T03:00:00Z,29.1080,-87.9440,1.0,99.0,-9999.0,99.0,'11144222,99999999,11144222' 
ADCP,ioos:station:wmo:42376:1,2012-06-03T03:20:00Z,29.1080,-87.9440,1.0,99.0,-9999.0,99.0,'11144222,99999999,11144222' 
ADCP,ioos:station:wmo:42376:1,2012-06-03T03:40:00Z,29.1080,-87.9440,1.0,99.0,-9999.0,99.0,'11144222,99999999,11144222' 
ADCP,ioos:station:wmo:42376:1,2012-06-03T04:00:00Z,29.1080,-87.9440,1.0,99.0,-9999.0,99.0,'11144222,99999999,11144222' 
ADCP,ioos:station:wmo:42376:1,2012-06-03T04:20:00Z,29.1080,-87.9440,1.0,99.0,-9999.0,99.0,'11144222,99999999,11144222' 
ADCP,ioos:station:wmo:42376:1,2012-06-03T04:40:00Z,29.1080,-87.9440,1.0,99.0,-9999.0,99.0,'11144222,99999999,11144222' 
ADCP,ioos:station:wmo:42376:1,2012-06-03T05:00:00Z,29.1080,-87.9440,1.0,99.0,-9999.0,99.0,'11144222,99999999,11144222' 
ADCP,ioos:station:wmo:42376:1,2012-06-03T05:20:00Z,29.1080,-87.9440,1.0,99.0,-9999.0,99.0,'11144222,99999999,11144222' 
ADCP,ioos:station:wmo:42376:1,2012-06-03T05:40:00Z,29.1080,-87.9440,1.0,99.0,-9999.0,99.0,'11144222,99999999,11144222' 
ADCP,ioos:station:wmo:42376:1,2012-06-03T06:00:00Z,29.1080,-87.9440,1.0,99.0,-9999.0,99.0,'11144222,99999999,11144222' 
ADCP,ioos:station:wmo:42376:1,2012-06-03T06:20:00Z,29.1080,-87.9440,1.0,99.0,-9999.0,99.0,'11144222,99999999,11144222' 
ADCP,ioos:station:wmo:42376:1,2012-06-03T06:40:00Z,29.1080,-87.9440,1.0,99.0,-9999.0,99.0,'11144222,99999999,11144222' 
ADCP,ioos:station:wmo:42376:1,2012-06-03T07:00:00Z,29.1080,-87.9440,1.0,99.0,-9999.0,99.0,'11144222,99999999,11144222' 
ADCP,ioos:station:wmo:42376:1,2012-06-03T07:20:00Z,29.1080,-87.9440,1.0,99.0,-9999.0,99.0,'11144222,99999999,11144222' 
ADCP,ioos:station:wmo:42376:1,2012-06-03T07:40:00Z,29.1080,-87.9440,1.0,99.0,-9999.0,99.0,'11144222,99999999,11144222' 
ADCP,ioos:station:wmo:42376:1,2012-06-03T08:00:00Z,29.1080,-87.9440,1.0,99.0,-9999.0,99.0,'11144222,99999999,11144222' 
ADCP,ioos:station:wmo:42376:1,2012-06-03T08:20:00Z,29.1080,-87.9440,1.0,99.0,-9999.0,99.0,'11144222,99999999,11144222' 
ADCP,ioos:station:wmo:42376:1,2012-06-03T08:40:00Z,29.1080,-87.9440,1.0,99.0,-9999.0,99.0,'11144222,99999999,11144222' 
ADCP,ioos:station:wmo:42376:1,2012-06-03T09:00:00Z,29.1080,-87.9440,1.0,99.0,-9999.0,99.0,'11144222,99999999,11144222' 
ADCP,ioos:station:wmo:42376:1,2012-06-03T09:20:00Z,29.1080,-87.9440,1.0,99.0,-9999.0,99.0,'11144222,99999999,11144222' 
ADCP,ioos:station:wmo:42376:1,2012-06-03T09:40:00Z,29.1080,-87.9440,1.0,99.0,-9999.0,99.0,'11144222,99999999,11144222' 
ADCP,ioos:station:wmo:42376:1,2012-06-03T10:00:00Z,29.1080,-87.9440,1.0,99.0,-9999.0,99.0,'11144222,99999999,11144222' 
ADCP,ioos:station:wmo:42376:1,2012-06-03T10:20:00Z,29.1080,-87.9440,1.0,99.0,-9999.0,99.0,'11144222,99999999,11144222' 
ADCP,ioos:station:wmo:42376:1,2012-06-03T10:40:00Z,29.1080,-87.9440,1.0,99.0,-9999.0,99.0,'11144222,99999999,11144222' 
ADCP,ioos:station:wmo:42376:1,2012-06-03T11:00:00Z,29.1080,-87.9440,1.0,99.0,-9999.0,99.0,'11144222,99999999,11144222' 
ADCP,ioos:station:wmo:42376:1,2012-06-03T11:20:00Z,29.1080,-87.9440,1.0,99.0,-9999.0,99.0,'11144222,99999999,11144222' 
ADCP,ioos:station:wmo:42376:1,2012-06-03T11:40:00Z,29.1080,-87.9440,1.0,99.0,-9999.0,99.0,'11144222,99999999,11144222' 
ADCP,ioos:station:wmo:42376:1,2012-06-03T12:00:00Z,29.1080,-87.9440,1.0,99.0,-9999.0,99.0,'11144222,99999999,11144222' 
ADCP,ioos:station:wmo:42376:1,2012-06-03T12:20:00Z,29.1080,-87.9440,1.0,99.0,-9999.0,99.0,'11144222,99999999,11144222' 
ADCP,ioos:station:wmo:42376:1,2012-06-03T12:40:00Z,29.1080,-87.9440,1.0,99.0,-9999.0,99.0,'11144222,99999999,11144222' 
ADCP,ioos:station:wmo:42376:1,2012-06-03T13:00:00Z,29.1080,-87.9440,1.0,99.0,-9999.0,99.0,'11144222,99999999,11144222' 
ADCP,ioos:station:wmo:42376:1,2012-06-03T13:20:00Z,29.1080,-87.9440,1.0,99.0,-9999.0,99.0,'11144222,99999999,11144222' 
ADCP,ioos:station:wmo:42376:1,2012-06-03T13:40:00Z,29.1080,-87.9440,1.0,99.0,-9999.0,99.0,'11144222,99999999,11144222' 
ADCP,ioos:station:wmo:42376:1,2012-06-03T14:00:00Z,29.1080,-87.9440,1.0,99.0,-9999.0,99.0,'11144222,99999999,11144222' 
ADCP,ioos:station:wmo:42376:1,2012-06-03T14:20:00Z,29.1080,-87.9440,1.0,99.0,-9999.0,99.0,'11144222,99999999,11144222' 
ADCP,ioos:station:wmo:42376:1,2012-06-03T14:40:00Z,29.1080,-87.9440,1.0,99.0,-9999.0,99.0,'11144222,99999999,11144222' 
ADCP,ioos:station:wmo:42376:1,2012-06-03T15:00:00Z,29.1080,-87.9440,1.0,99.0,-9999.0,99.0,'11144222,99999999,11144222' 
ADCP,ioos:station:wmo:42376:1,2012-06-03T15:20:00Z,29.1080,-87.9440,1.0,99.0,-9999.0,99.0,'11144222,99999999,11144222' 
ADCP,ioos:station:wmo:42376:1,2012-06-03T15:40:00Z,29.1080,-87.9440,1.0,99.0,-9999.0,99.0,'11144222,99999999,11144222' 
ADCP,ioos:station:wmo:42376:1,2012-06-03T16:00:00Z,29.1080,-87.9440,1.0,99.0,-9999.0,99.0,'11144222,99999999,11144222' 
ADCP,ioos:station:wmo:42376:1,2012-06-03T16:20:00Z,29.1080,-87.9440,1.0,99.0,-9999.0,99.0,'11144222,99999999,11144222' 
ADCP,ioos:station:wmo:42376:1,2012-06-03T16:40:00Z,29.1080,-87.9440,1.0,99.0,-9999.0,99.0,'11144222,99999999,11144222' 
ADCP,ioos:station:wmo:42376:1,2012-06-03T17:00:00Z,29.1080,-87.9440,1.0,99.0,-9999.0,99.0,'11144222,99999999,11144222' 
ADCP,ioos:station:wmo:42376:1,2012-06-03T17:20:00Z,29.1080,-87.9440,1.0,99.0,-9999.0,99.0,'11144222,99999999,11144222' 
ADCP,ioos:station:wmo:42376:1,2012-06-03T17:40:00Z,29.1080,-87.9440,1.0,99.0,-9999.0,99.0,'11144222,99999999,11144222' 
ADCP,ioos:station:wmo:42376:1,2012-06-03T18:00:00Z,29.1080,-87.9440,1.0,99.0,-9999.0,99.0,'11144222,99999999,11144222' 